CMP239 KMCO-MPTO

Flight info

Callsign CMP239
Flight time 2h 46m
Altitude 35000
Route FSHUN4 PLUMR DCT FEMID Q79 VAULT/N0462F360 Q79 MCLAW Y442 FUNDI/N0462F350 UM335 ARNAL DCT SEKMA OSUPA2B
Aircraft B738/M-SDE2E3FGHIRWXY/LB1

Departure

Time 2026-05-07 10:48
Airport Orlando International Airport (KMCO)

Arrival

Time 2026-05-07 13:34
Airport Tocumen International Airport (MPTO)
Time Latitude Longitude Altitude Speed Heading
2026-05-07 10:36 28.43597 -81.30046 99 ft 0 kts 257°
2026-05-07 10:42 28.43598 -81.30028 98 ft 2 kts 275°
2026-05-07 10:43 28.43594 -81.30010 98 ft 2 kts 299°
2026-05-07 10:43 28.43584 -81.29995 98 ft 2 kts 320°
2026-05-07 10:43 28.43571 -81.29985 99 ft 2 kts 334°
2026-05-07 10:43 28.43556 -81.29978 98 ft 2 kts 343°
2026-05-07 10:44 28.43543 -81.29974 99 ft 1 kts 351°
2026-05-07 10:44 28.43541 -81.29974 99 ft 0 kts 352°
2026-05-07 10:45 28.43549 -81.29975 99 ft 3 kts 352°
2026-05-07 10:45 28.43561 -81.29948 99 ft 7 kts 94°
2026-05-07 10:46 28.43553 -81.29875 100 ft 12 kts 99°
2026-05-07 10:46 28.43549 -81.29777 103 ft 14 kts 88°
2026-05-07 10:46 28.43551 -81.29657 102 ft 10 kts 89°
2026-05-07 10:46 28.43528 -81.29590 103 ft 10 kts 155°
2026-05-07 10:47 28.43461 -81.29588 105 ft 9 kts 180°
2026-05-07 10:47 28.43241 -81.29584 106 ft 65 kts 179°
2026-05-07 10:47 28.42564 -81.29578 99 ft 128 kts 179°
2026-05-07 10:47 28.41502 -81.29565 138 ft 174 kts 179°
2026-05-07 10:48 28.40235 -81.29564 618 ft 189 kts 180°
2026-05-07 10:48 28.38983 -81.29579 1682 ft 171 kts 182°
2026-05-07 10:48 28.37816 -81.29680 2366 ft 174 kts 200°
2026-05-07 10:48 28.36718 -81.30427 2658 ft 198 kts 213°
2026-05-07 10:49 28.35395 -81.31092 2836 ft 220 kts 198°
2026-05-07 10:49 28.33889 -81.31656 3089 ft 237 kts 200°
2026-05-07 10:49 28.32273 -81.32337 3326 ft 256 kts 201°
2026-05-07 10:49 28.30585 -81.33072 3969 ft 261 kts 201°
2026-05-07 10:50 28.28911 -81.33810 4768 ft 262 kts 201°
2026-05-07 10:50 28.27213 -81.34564 5468 ft 265 kts 201°
2026-05-07 10:50 28.25491 -81.35331 6217 ft 266 kts 201°
2026-05-07 10:50 28.23772 -81.36100 6903 ft 269 kts 201°
2026-05-07 10:51 28.22021 -81.36885 7513 ft 273 kts 201°
2026-05-07 10:51 28.20240 -81.37684 8129 ft 277 kts 201°
2026-05-07 10:51 28.18436 -81.38494 8765 ft 281 kts 202°
2026-05-07 10:51 28.16607 -81.39315 9384 ft 285 kts 202°
2026-05-07 10:52 28.14776 -81.40138 9994 ft 289 kts 202°
2026-05-07 10:52 28.12886 -81.40987 10396 ft 300 kts 202°
2026-05-07 10:52 28.10874 -81.41892 10524 ft 321 kts 202°
2026-05-07 10:52 28.08741 -81.42850 10641 ft 340 kts 202°
2026-05-07 10:53 28.06498 -81.43856 10893 ft 352 kts 202°
2026-05-07 10:53 28.04199 -81.44886 11371 ft 357 kts 202°
2026-05-07 10:53 28.01880 -81.45925 11921 ft 360 kts 202°
2026-05-07 10:53 27.99540 -81.46973 12489 ft 363 kts 203°
2026-05-07 10:54 27.97184 -81.48028 13043 ft 366 kts 203°
2026-05-07 10:54 27.94802 -81.49094 13603 ft 370 kts 203°
2026-05-07 10:54 27.92475 -81.50162 14134 ft 373 kts 206°
2026-05-07 10:54 27.90235 -81.51633 14667 ft 372 kts 219°
2026-05-07 10:55 27.88195 -81.53436 15268 ft 373 kts 220°
2026-05-07 10:55 27.86145 -81.55240 15848 ft 375 kts 220°
2026-05-07 10:55 27.84062 -81.57046 16425 ft 378 kts 220°
2026-05-07 10:55 27.81959 -81.58854 16986 ft 381 kts 220°
2026-05-07 10:56 27.79843 -81.60664 17503 ft 384 kts 220°
2026-05-07 10:56 27.77696 -81.62497 17998 ft 388 kts 220°
2026-05-07 10:56 27.75539 -81.64337 18528 ft 390 kts 220°
2026-05-07 10:56 27.73399 -81.66161 19008 ft 391 kts 221°
2026-05-07 10:57 27.71141 -81.67908 19457 ft 398 kts 211°
2026-05-07 10:57 27.68485 -81.68909 19887 ft 410 kts 192°
2026-05-07 10:57 27.65603 -81.68952 20361 ft 420 kts 176°
2026-05-07 10:57 27.62705 -81.68464 20808 ft 423 kts 175°
2026-05-07 10:58 27.59774 -81.67980 21181 ft 428 kts 176°
2026-05-07 10:58 27.56816 -81.67502 21571 ft 431 kts 176°
2026-05-07 10:58 27.53876 -81.67036 21986 ft 433 kts 176°
2026-05-07 10:58 27.50881 -81.66570 22405 ft 436 kts 177°
2026-05-07 10:59 27.47871 -81.66108 22800 ft 439 kts 177°
2026-05-07 10:59 27.44837 -81.65647 23180 ft 441 kts 177°
2026-05-07 10:59 27.41777 -81.65183 23539 ft 445 kts 177°
2026-05-07 10:59 27.38702 -81.64719 23851 ft 448 kts 177°
2026-05-07 11:00 27.35608 -81.64252 24182 ft 450 kts 177°
2026-05-07 11:00 27.32498 -81.63783 24511 ft 451 kts 178°
2026-05-07 11:00 27.29394 -81.63314 24822 ft 454 kts 178°
2026-05-07 11:00 27.26262 -81.62841 25131 ft 456 kts 178°
2026-05-07 11:01 27.23154 -81.62373 25428 ft 458 kts 178°
2026-05-07 11:01 27.19984 -81.61895 25737 ft 460 kts 177°
2026-05-07 11:01 27.16814 -81.61417 26050 ft 461 kts 177°
2026-05-07 11:01 27.13625 -81.60937 26338 ft 463 kts 177°
2026-05-07 11:02 27.10418 -81.60455 26620 ft 466 kts 177°
2026-05-07 11:02 27.07240 -81.59977 26901 ft 468 kts 177°
2026-05-07 11:02 27.04018 -81.59493 27181 ft 470 kts 177°
2026-05-07 11:02 27.00775 -81.59006 27466 ft 471 kts 177°
2026-05-07 11:03 26.97522 -81.58517 27733 ft 473 kts 177°
2026-05-07 11:03 26.94293 -81.58033 27988 ft 475 kts 177°
2026-05-07 11:03 26.91008 -81.57541 28247 ft 477 kts 177°
2026-05-07 11:03 26.87721 -81.57047 28580 ft 477 kts 177°
2026-05-07 11:04 26.84429 -81.56554 28850 ft 478 kts 177°
2026-05-07 11:04 26.81124 -81.56060 29063 ft 481 kts 177°
2026-05-07 11:04 26.77794 -81.55562 29297 ft 483 kts 177°
2026-05-07 11:04 26.74456 -81.55063 29538 ft 485 kts 177°
2026-05-07 11:05 26.71107 -81.54563 29785 ft 486 kts 177°
2026-05-07 11:05 26.67753 -81.54062 30023 ft 487 kts 177°
2026-05-07 11:05 26.64439 -81.53567 30275 ft 488 kts 177°
2026-05-07 11:05 26.61080 -81.53065 30575 ft 486 kts 177°
2026-05-07 11:06 26.57729 -81.52564 30903 ft 484 kts 177°
2026-05-07 11:06 26.54395 -81.52067 31189 ft 484 kts 177°
2026-05-07 11:06 26.51067 -81.51571 31454 ft 484 kts 177°
2026-05-07 11:06 26.47737 -81.51076 31735 ft 483 kts 177°
2026-05-07 11:07 26.44404 -81.50581 32041 ft 482 kts 177°
2026-05-07 11:07 26.41082 -81.50087 32351 ft 481 kts 176°
2026-05-07 11:07 26.37763 -81.49594 32642 ft 481 kts 176°
2026-05-07 11:07 26.34491 -81.49109 32931 ft 480 kts 176°
2026-05-07 11:08 26.31181 -81.48618 33231 ft 480 kts 176°
2026-05-07 11:08 26.27883 -81.48129 33510 ft 479 kts 176°
2026-05-07 11:08 26.24572 -81.47638 33783 ft 479 kts 176°
2026-05-07 11:08 26.21273 -81.47150 34065 ft 478 kts 176°
2026-05-07 11:09 26.17981 -81.46662 34322 ft 477 kts 176°
2026-05-07 11:09 26.14691 -81.46175 34565 ft 476 kts 176°
2026-05-07 11:09 26.11411 -81.45682 34802 ft 476 kts 175°
2026-05-07 11:09 26.08154 -81.44917 35010 ft 480 kts 168°
2026-05-07 11:10 26.01781 -81.42729 35055 ft 486 kts 166°
2026-05-07 11:10 25.95347 -81.40450 35041 ft 482 kts 166°
2026-05-07 11:11 25.89005 -81.38273 35056 ft 478 kts 167°
2026-05-07 11:11 25.82641 -81.36135 35054 ft 477 kts 167°
2026-05-07 11:12 25.76346 -81.34032 35057 ft 476 kts 167°
2026-05-07 11:12 25.70003 -81.31914 35061 ft 477 kts 167°
2026-05-07 11:13 25.63652 -81.29792 35057 ft 477 kts 167°
2026-05-07 11:13 25.57306 -81.27675 35055 ft 478 kts 167°
2026-05-07 11:14 25.50926 -81.25548 35065 ft 479 kts 167°
2026-05-07 11:14 25.44580 -81.23434 35056 ft 481 kts 167°
2026-05-07 11:15 25.38168 -81.21300 35057 ft 482 kts 167°
2026-05-07 11:15 25.31739 -81.19164 35056 ft 483 kts 166°
2026-05-07 11:16 25.25307 -81.17028 35057 ft 483 kts 166°
2026-05-07 11:16 25.18916 -81.14909 35060 ft 484 kts 166°
2026-05-07 11:17 25.12472 -81.12774 35060 ft 484 kts 166°
2026-05-07 11:17 25.06025 -81.10641 35050 ft 484 kts 166°
2026-05-07 11:18 24.99581 -81.08511 35046 ft 483 kts 166°
2026-05-07 11:18 24.93152 -81.06389 35052 ft 482 kts 166°
2026-05-07 11:19 24.86777 -81.04286 35053 ft 481 kts 166°
2026-05-07 11:19 24.80365 -81.02173 35055 ft 481 kts 166°
2026-05-07 11:20 24.73855 -81.00876 35054 ft 472 kts 184°
2026-05-07 11:20 24.67361 -81.01230 35051 ft 470 kts 186°
2026-05-07 11:21 24.60909 -81.01530 35054 ft 470 kts 185°
2026-05-07 11:21 24.54368 -81.01760 35045 ft 471 kts 184°
2026-05-07 11:22 24.47809 -81.01712 35048 ft 472 kts 182°
2026-05-07 11:22 24.41233 -81.01589 35046 ft 472 kts 182°
2026-05-07 11:23 24.34704 -81.01505 35046 ft 473 kts 183°
2026-05-07 11:23 24.28123 -81.01445 35046 ft 473 kts 183°
2026-05-07 11:24 24.21538 -81.01390 35049 ft 473 kts 183°
2026-05-07 11:24 24.14949 -81.01332 35049 ft 474 kts 183°
2026-05-07 11:25 24.08398 -81.01274 35042 ft 474 kts 182°
2026-05-07 11:25 24.01802 -81.01216 35050 ft 474 kts 182°
2026-05-07 11:26 23.95216 -81.01067 35052 ft 475 kts 181°
2026-05-07 11:26 23.88613 -81.00753 35052 ft 475 kts 180°
2026-05-07 11:27 23.82048 -81.00437 35051 ft 475 kts 180°
2026-05-07 11:27 23.75443 -81.00144 35047 ft 475 kts 180°
2026-05-07 11:28 23.68838 -80.99862 35050 ft 475 kts 180°
2026-05-07 11:28 23.62233 -80.99581 35049 ft 475 kts 180°
2026-05-07 11:29 23.55668 -80.99301 35050 ft 475 kts 180°
2026-05-07 11:29 23.49060 -80.99019 35048 ft 475 kts 180°
2026-05-07 11:30 23.42449 -80.98737 35047 ft 475 kts 180°
2026-05-07 11:30 23.35838 -80.98455 35050 ft 476 kts 180°
2026-05-07 11:31 23.29221 -80.98173 35051 ft 476 kts 180°
2026-05-07 11:31 23.22641 -80.97900 35052 ft 476 kts 180°
2026-05-07 11:32 23.12703 -80.97502 35045 ft 477 kts 180°
2026-05-07 11:33 23.06074 -80.97238 35055 ft 477 kts 180°
2026-05-07 11:33 22.99435 -80.97004 35052 ft 477 kts 180°
2026-05-07 11:34 22.92847 -80.96748 35050 ft 477 kts 180°
2026-05-07 11:34 22.86206 -80.96479 35048 ft 478 kts 180°
2026-05-07 11:35 22.79564 -80.96214 35044 ft 478 kts 180°
2026-05-07 11:35 22.72913 -80.95950 35049 ft 478 kts 180°
2026-05-07 11:36 22.66317 -80.95691 35050 ft 478 kts 180°
2026-05-07 11:36 22.59667 -80.95429 35053 ft 478 kts 180°
2026-05-07 11:37 22.53016 -80.95167 35054 ft 478 kts 180°
2026-05-07 11:37 22.46364 -80.94906 35049 ft 478 kts 180°
2026-05-07 11:38 22.39759 -80.94646 35047 ft 478 kts 180°
2026-05-07 11:38 22.33101 -80.94385 35044 ft 478 kts 180°
2026-05-07 11:39 22.26451 -80.94125 35046 ft 479 kts 180°
2026-05-07 11:39 22.19791 -80.93864 35040 ft 479 kts 180°
2026-05-07 11:40 22.13178 -80.93605 35043 ft 479 kts 180°
2026-05-07 11:40 22.06526 -80.93345 35041 ft 479 kts 180°
2026-05-07 11:41 21.99867 -80.93085 35041 ft 479 kts 180°
2026-05-07 11:41 21.93206 -80.92825 35040 ft 479 kts 180°
2026-05-07 11:42 21.86592 -80.92568 35039 ft 479 kts 179°
2026-05-07 11:42 21.79933 -80.92308 35042 ft 479 kts 179°
2026-05-07 11:43 21.73270 -80.92049 35042 ft 479 kts 179°
2026-05-07 11:43 21.66613 -80.91791 35040 ft 479 kts 179°
2026-05-07 11:44 21.59989 -80.91533 35040 ft 479 kts 179°
2026-05-07 11:44 21.53329 -80.91275 35033 ft 479 kts 179°
2026-05-07 11:45 21.46667 -80.91018 35040 ft 479 kts 179°
2026-05-07 11:45 21.40003 -80.90764 35039 ft 479 kts 179°
2026-05-07 11:46 21.33348 -80.90509 35044 ft 479 kts 179°
2026-05-07 11:46 21.26730 -80.90256 35038 ft 479 kts 179°
2026-05-07 11:47 21.20061 -80.90002 35041 ft 479 kts 179°
2026-05-07 11:47 21.13398 -80.89748 35041 ft 479 kts 179°
2026-05-07 11:48 21.06729 -80.89494 35040 ft 479 kts 179°
2026-05-07 11:48 21.00108 -80.89212 35041 ft 480 kts 179°
2026-05-07 11:49 20.93439 -80.88911 35040 ft 480 kts 179°
2026-05-07 11:49 20.86772 -80.88611 35038 ft 479 kts 179°
2026-05-07 11:50 20.80107 -80.88316 35041 ft 479 kts 179°
2026-05-07 11:50 20.73439 -80.88022 35039 ft 479 kts 179°
2026-05-07 11:51 20.66822 -80.87730 35037 ft 479 kts 179°
2026-05-07 11:51 20.60163 -80.87437 35038 ft 479 kts 179°
2026-05-07 11:52 20.53504 -80.87145 35040 ft 479 kts 178°
2026-05-07 11:52 20.46853 -80.86852 35037 ft 479 kts 178°
2026-05-07 11:53 20.40242 -80.86562 35038 ft 478 kts 178°
2026-05-07 11:53 20.33592 -80.86270 35037 ft 478 kts 178°
2026-05-07 11:54 20.26947 -80.85979 35039 ft 478 kts 178°
2026-05-07 11:54 20.20299 -80.85688 35034 ft 478 kts 178°
2026-05-07 11:55 20.13657 -80.85397 35036 ft 478 kts 178°
2026-05-07 11:55 20.07059 -80.85109 35035 ft 478 kts 178°
2026-05-07 11:56 20.00417 -80.84818 35035 ft 478 kts 178°
2026-05-07 11:56 19.93777 -80.84509 35035 ft 478 kts 178°
2026-05-07 11:57 19.87178 -80.84187 35034 ft 478 kts 178°
2026-05-07 11:57 19.80541 -80.83864 35034 ft 478 kts 178°
2026-05-07 11:58 19.73901 -80.83543 35033 ft 478 kts 178°
2026-05-07 11:58 19.67262 -80.83225 35030 ft 478 kts 178°
2026-05-07 11:59 19.60622 -80.82906 35031 ft 478 kts 178°
2026-05-07 11:59 19.54024 -80.82590 35025 ft 478 kts 178°
2026-05-07 12:00 19.47380 -80.82271 35031 ft 478 kts 178°
2026-05-07 12:00 19.40740 -80.81953 35035 ft 478 kts 178°
2026-05-07 12:01 19.34086 -80.81634 35030 ft 478 kts 178°
2026-05-07 12:01 19.27481 -80.81318 35030 ft 478 kts 178°
2026-05-07 12:02 19.20834 -80.81002 35032 ft 479 kts 178°
2026-05-07 12:02 19.14178 -80.80686 35026 ft 479 kts 178°
2026-05-07 12:03 19.07527 -80.80371 35028 ft 478 kts 178°
2026-05-07 12:03 19.00920 -80.80058 35026 ft 478 kts 178°
2026-05-07 12:04 18.94270 -80.79743 35028 ft 478 kts 178°
2026-05-07 12:04 18.87620 -80.79428 35023 ft 478 kts 177°
2026-05-07 12:05 18.80979 -80.79114 35027 ft 478 kts 177°
2026-05-07 12:05 18.74390 -80.78802 35020 ft 477 kts 177°
2026-05-07 12:06 18.67754 -80.78489 35022 ft 477 kts 177°
2026-05-07 12:06 18.61125 -80.78176 35022 ft 477 kts 177°
2026-05-07 12:07 18.54502 -80.77863 35021 ft 476 kts 177°
2026-05-07 12:07 18.47920 -80.77553 35020 ft 476 kts 177°
2026-05-07 12:08 18.41297 -80.77241 35019 ft 476 kts 177°
2026-05-07 12:08 18.34677 -80.76930 35022 ft 476 kts 177°
2026-05-07 12:09 18.28059 -80.76619 35022 ft 476 kts 177°
2026-05-07 12:09 18.21435 -80.76308 35022 ft 476 kts 177°
2026-05-07 12:10 18.14853 -80.75999 35021 ft 477 kts 177°
2026-05-07 12:10 18.08228 -80.75688 35021 ft 477 kts 177°
2026-05-07 12:11 18.01601 -80.75377 35020 ft 477 kts 177°
2026-05-07 12:11 17.94971 -80.75067 35022 ft 477 kts 177°
2026-05-07 12:12 17.88335 -80.74756 35020 ft 477 kts 177°
2026-05-07 12:12 17.81748 -80.74448 35019 ft 477 kts 177°
2026-05-07 12:13 17.75118 -80.74138 35017 ft 477 kts 177°
2026-05-07 12:13 17.68483 -80.73828 35017 ft 477 kts 177°
2026-05-07 12:14 17.61889 -80.73520 35014 ft 477 kts 177°
2026-05-07 12:14 17.55256 -80.73210 35017 ft 477 kts 177°
2026-05-07 12:15 17.48624 -80.72899 35013 ft 477 kts 177°
2026-05-07 12:15 17.41990 -80.72588 35013 ft 477 kts 177°
2026-05-07 12:16 17.35355 -80.72277 35010 ft 477 kts 177°
2026-05-07 12:16 17.28762 -80.71969 35011 ft 477 kts 177°
2026-05-07 12:17 17.22130 -80.71659 35011 ft 477 kts 177°
2026-05-07 12:17 17.15493 -80.71349 35008 ft 477 kts 176°
2026-05-07 12:18 17.08859 -80.71040 35002 ft 477 kts 176°
2026-05-07 12:18 17.02270 -80.70732 35002 ft 477 kts 176°
2026-05-07 12:19 16.95637 -80.70423 35003 ft 477 kts 177°
2026-05-07 12:19 16.89002 -80.70114 35002 ft 477 kts 177°
2026-05-07 12:20 16.82366 -80.69806 34999 ft 477 kts 176°
2026-05-07 12:20 16.76851 -80.69549 35001 ft 477 kts 176°
2026-05-07 12:21 16.69136 -80.69190 35007 ft 477 kts 176°
2026-05-07 12:21 16.62499 -80.68882 35005 ft 478 kts 176°
2026-05-07 12:22 16.55860 -80.68574 34996 ft 478 kts 176°
2026-05-07 12:22 16.50342 -80.68318 35003 ft 477 kts 176°
2026-05-07 12:23 16.42624 -80.67961 35001 ft 478 kts 176°
2026-05-07 12:23 16.35987 -80.67653 34993 ft 478 kts 176°
2026-05-07 12:24 16.30469 -80.67398 34998 ft 478 kts 176°
2026-05-07 12:24 16.22704 -80.67039 35002 ft 478 kts 176°
2026-05-07 12:25 16.17187 -80.66784 35001 ft 478 kts 176°
2026-05-07 12:25 16.09474 -80.66427 34991 ft 478 kts 176°
2026-05-07 12:26 16.02834 -80.66121 34995 ft 477 kts 176°
2026-05-07 12:26 15.96197 -80.65815 34997 ft 477 kts 176°
2026-05-07 12:27 15.90681 -80.65561 34992 ft 477 kts 176°
2026-05-07 12:27 15.84043 -80.65255 34994 ft 478 kts 176°
2026-05-07 12:28 15.76333 -80.64900 34995 ft 478 kts 176°
2026-05-07 12:28 15.70812 -80.64646 34995 ft 477 kts 176°
2026-05-07 12:29 15.64169 -80.64341 34992 ft 478 kts 176°
2026-05-07 12:29 15.57530 -80.64035 34992 ft 478 kts 176°
2026-05-07 12:30 15.50884 -80.63730 34995 ft 478 kts 176°
2026-05-07 12:30 15.44284 -80.63428 34988 ft 478 kts 176°
2026-05-07 12:31 15.37655 -80.63124 34984 ft 478 kts 177°
2026-05-07 12:31 15.31011 -80.62819 34989 ft 478 kts 176°
2026-05-07 12:32 15.24367 -80.62515 34997 ft 478 kts 176°
2026-05-07 12:32 15.17832 -80.62216 34986 ft 478 kts 176°
2026-05-07 12:33 15.07982 -80.61765 34984 ft 477 kts 177°
2026-05-07 12:33 15.00281 -80.61408 34985 ft 476 kts 176°
2026-05-07 12:34 14.94791 -80.60698 34984 ft 475 kts 169°
2026-05-07 12:34 14.88275 -80.59496 34985 ft 475 kts 169°
2026-05-07 12:35 14.81814 -80.58302 34975 ft 475 kts 169°
2026-05-07 12:35 14.75299 -80.57153 34995 ft 475 kts 169°
2026-05-07 12:36 14.68783 -80.56032 34983 ft 475 kts 169°
2026-05-07 12:36 14.62311 -80.54925 34981 ft 474 kts 169°
2026-05-07 12:37 14.55812 -80.53814 34987 ft 473 kts 169°
2026-05-07 12:37 14.49354 -80.52707 34983 ft 473 kts 169°
2026-05-07 12:38 14.42884 -80.51600 34984 ft 472 kts 169°
2026-05-07 12:38 14.36458 -80.50501 34987 ft 473 kts 169°
2026-05-07 12:39 14.29960 -80.49388 34978 ft 474 kts 169°
2026-05-07 12:39 14.23453 -80.48274 34983 ft 474 kts 169°
2026-05-07 12:40 14.16937 -80.47161 34978 ft 475 kts 169°
2026-05-07 12:40 14.10454 -80.46056 34982 ft 475 kts 169°
2026-05-07 12:41 14.03969 -80.44952 34976 ft 476 kts 169°
2026-05-07 12:41 13.97443 -80.43840 34975 ft 475 kts 168°
2026-05-07 12:42 13.90926 -80.42726 34981 ft 474 kts 169°
2026-05-07 12:42 13.84429 -80.41619 34972 ft 473 kts 168°
2026-05-07 12:43 13.78005 -80.40527 34971 ft 471 kts 169°
2026-05-07 12:43 13.71547 -80.39431 34971 ft 470 kts 169°
2026-05-07 12:44 13.65152 -80.38343 34978 ft 469 kts 168°
2026-05-07 12:44 13.58726 -80.37249 34970 ft 468 kts 168°
2026-05-07 12:45 13.52360 -80.36166 34968 ft 467 kts 169°
2026-05-07 12:45 13.45959 -80.35080 34966 ft 466 kts 168°
2026-05-07 12:46 13.39569 -80.33998 34973 ft 465 kts 168°
2026-05-07 12:46 13.33179 -80.32914 34970 ft 465 kts 168°
2026-05-07 12:47 13.26837 -80.31839 34977 ft 465 kts 168°
2026-05-07 12:47 13.20443 -80.30754 34959 ft 466 kts 168°
2026-05-07 12:48 13.14046 -80.29671 34961 ft 466 kts 168°
2026-05-07 12:48 13.07669 -80.28593 34964 ft 466 kts 168°
2026-05-07 12:49 13.01308 -80.27518 34965 ft 467 kts 168°
2026-05-07 12:49 12.94901 -80.26434 34968 ft 467 kts 168°
2026-05-07 12:50 12.88487 -80.25350 34966 ft 467 kts 168°
2026-05-07 12:50 12.82079 -80.24267 34960 ft 467 kts 168°
2026-05-07 12:51 12.75699 -80.23191 34963 ft 467 kts 168°
2026-05-07 12:51 12.69285 -80.22110 34957 ft 467 kts 168°
2026-05-07 12:52 12.62874 -80.21029 34958 ft 467 kts 168°
2026-05-07 12:52 12.56460 -80.19947 34960 ft 467 kts 168°
2026-05-07 12:53 12.50094 -80.18875 34959 ft 467 kts 168°
2026-05-07 12:53 12.43691 -80.17797 34957 ft 466 kts 168°
2026-05-07 12:54 12.37291 -80.16720 34960 ft 466 kts 168°
2026-05-07 12:54 12.30890 -80.15645 34948 ft 466 kts 168°
2026-05-07 12:55 12.24537 -80.14577 34958 ft 466 kts 168°
2026-05-07 12:55 12.18141 -80.13502 34955 ft 466 kts 168°
2026-05-07 12:56 12.11753 -80.12429 34950 ft 466 kts 168°
2026-05-07 12:56 12.05355 -80.11356 34954 ft 465 kts 168°
2026-05-07 12:57 11.98962 -80.10283 34955 ft 465 kts 168°
2026-05-07 12:57 11.92617 -80.09218 34959 ft 465 kts 168°
2026-05-07 12:58 11.86247 -80.08150 34951 ft 466 kts 168°
2026-05-07 12:58 11.79823 -80.07073 34951 ft 466 kts 168°
2026-05-07 12:59 11.73461 -80.06008 34946 ft 467 kts 169°
2026-05-07 12:59 11.67050 -80.04935 34952 ft 467 kts 168°
2026-05-07 13:00 11.60624 -80.03861 34951 ft 468 kts 168°
2026-05-07 13:00 11.54189 -80.02784 34948 ft 469 kts 168°
2026-05-07 13:01 11.47751 -80.01707 34942 ft 470 kts 169°
2026-05-07 13:01 11.41337 -80.00636 34944 ft 471 kts 169°
2026-05-07 13:02 11.34872 -79.99557 34950 ft 471 kts 169°
2026-05-07 13:02 11.28392 -79.98476 34938 ft 472 kts 169°
2026-05-07 13:03 11.21897 -79.97392 34945 ft 473 kts 168°
2026-05-07 13:03 11.15406 -79.96310 34934 ft 473 kts 169°
2026-05-07 13:04 11.08967 -79.95236 34939 ft 473 kts 169°
2026-05-07 13:04 11.02469 -79.94154 34940 ft 473 kts 169°
2026-05-07 13:05 10.95974 -79.93073 34941 ft 473 kts 169°
2026-05-07 13:05 10.89484 -79.91994 34948 ft 472 kts 169°
2026-05-07 13:06 10.82995 -79.90913 34933 ft 472 kts 169°
2026-05-07 13:06 10.76558 -79.89841 34943 ft 472 kts 169°
2026-05-07 13:07 10.70083 -79.88764 34940 ft 471 kts 169°
2026-05-07 13:07 10.63610 -79.87689 34945 ft 471 kts 169°
2026-05-07 13:08 10.57141 -79.86615 34758 ft 474 kts 169°
2026-05-07 13:08 10.53909 -79.86078 34205 ft 476 kts 168°
2026-05-07 13:08 10.50649 -79.85536 33569 ft 475 kts 169°
2026-05-07 13:09 10.47386 -79.84994 32990 ft 473 kts 168°
2026-05-07 13:09 10.44157 -79.84459 32526 ft 468 kts 168°
2026-05-07 13:09 10.41034 -79.83648 32058 ft 459 kts 153°
2026-05-07 13:09 10.38361 -79.81986 31863 ft 445 kts 143°
2026-05-07 13:10 10.35780 -79.80269 31400 ft 443 kts 146°
2026-05-07 13:10 10.33162 -79.78652 30994 ft 439 kts 147°
2026-05-07 13:10 10.30578 -79.77096 30561 ft 436 kts 147°
2026-05-07 13:10 10.27970 -79.75534 30122 ft 433 kts 147°
2026-05-07 13:11 10.25385 -79.73982 29612 ft 431 kts 147°
2026-05-07 13:11 10.22819 -79.72435 29120 ft 427 kts 146°
2026-05-07 13:11 10.20278 -79.70898 28646 ft 423 kts 146°
2026-05-07 13:11 10.17761 -79.69372 28184 ft 419 kts 146°
2026-05-07 13:12 10.15271 -79.67860 27732 ft 416 kts 146°
2026-05-07 13:12 10.12801 -79.66359 27286 ft 412 kts 146°
2026-05-07 13:12 10.10379 -79.64888 26851 ft 409 kts 146°
2026-05-07 13:12 10.07945 -79.63410 26413 ft 406 kts 146°
2026-05-07 13:13 10.05526 -79.61941 25979 ft 404 kts 145°
2026-05-07 13:13 10.03122 -79.60481 25551 ft 401 kts 146°
2026-05-07 13:13 10.00731 -79.59030 25103 ft 400 kts 145°
2026-05-07 13:13 9.98363 -79.57593 24660 ft 398 kts 145°
2026-05-07 13:14 9.95991 -79.56154 24213 ft 397 kts 145°
2026-05-07 13:14 9.93635 -79.54724 23901 ft 391 kts 145°
2026-05-07 13:14 9.91327 -79.53326 23700 ft 383 kts 145°
2026-05-07 13:14 9.89096 -79.51975 23553 ft 374 kts 144°
2026-05-07 13:15 9.86886 -79.50636 23374 ft 365 kts 144°
2026-05-07 13:15 9.84676 -79.49392 23038 ft 364 kts 150°
2026-05-07 13:15 9.82384 -79.48338 22725 ft 361 kts 152°
2026-05-07 13:15 9.80080 -79.47343 22354 ft 359 kts 153°
2026-05-07 13:16 9.77788 -79.46356 22002 ft 356 kts 152°
2026-05-07 13:16 9.75519 -79.45363 21648 ft 354 kts 152°
2026-05-07 13:16 9.73271 -79.44364 21297 ft 351 kts 152°
2026-05-07 13:16 9.71045 -79.43366 20951 ft 349 kts 152°
2026-05-07 13:17 9.68832 -79.42368 20604 ft 347 kts 152°
2026-05-07 13:17 9.66660 -79.41385 20264 ft 346 kts 152°
2026-05-07 13:17 9.64468 -79.40393 19919 ft 344 kts 152°
2026-05-07 13:17 9.62294 -79.39410 19579 ft 343 kts 152°
2026-05-07 13:18 9.60121 -79.38427 19231 ft 342 kts 152°
2026-05-07 13:18 9.57953 -79.37447 18888 ft 341 kts 152°
2026-05-07 13:18 9.55888 -79.36298 18522 ft 338 kts 143°
2026-05-07 13:18 9.54007 -79.34916 18186 ft 335 kts 140°
2026-05-07 13:19 9.52160 -79.33475 17792 ft 334 kts 139°
2026-05-07 13:19 9.50353 -79.32061 17451 ft 332 kts 140°
2026-05-07 13:19 9.48525 -79.30646 17103 ft 329 kts 140°
2026-05-07 13:19 9.46701 -79.29257 16772 ft 327 kts 140°
2026-05-07 13:20 9.44880 -79.27884 16430 ft 326 kts 141°
2026-05-07 13:20 9.43065 -79.26524 16106 ft 323 kts 141°
2026-05-07 13:20 9.41260 -79.25176 15778 ft 322 kts 141°
2026-05-07 13:20 9.39460 -79.23833 15445 ft 321 kts 141°
2026-05-07 13:21 9.37668 -79.22495 15116 ft 319 kts 141°
2026-05-07 13:21 9.35910 -79.21184 14786 ft 318 kts 141°
2026-05-07 13:21 9.34132 -79.19860 14475 ft 316 kts 141°
2026-05-07 13:21 9.32368 -79.18545 14147 ft 315 kts 141°
2026-05-07 13:22 9.30607 -79.17234 13803 ft 314 kts 141°
2026-05-07 13:22 9.28849 -79.15929 13489 ft 312 kts 142°
2026-05-07 13:22 9.26885 -79.14992 13112 ft 318 kts 166°
2026-05-07 13:22 9.24669 -79.15003 12761 ft 323 kts 188°
2026-05-07 13:23 9.22591 -79.15801 12373 ft 329 kts 208°
2026-05-07 13:23 9.20678 -79.17071 11984 ft 329 kts 211°
2026-05-07 13:23 9.18777 -79.18368 11577 ft 330 kts 211°
2026-05-07 13:23 9.16867 -79.19672 11166 ft 331 kts 211°
2026-05-07 13:24 9.14953 -79.20972 10759 ft 332 kts 211°
2026-05-07 13:24 9.13028 -79.22272 10337 ft 333 kts 211°
2026-05-07 13:24 9.11101 -79.23567 9923 ft 333 kts 212°
2026-05-07 13:24 9.09206 -79.24839 9914 ft 319 kts 211°
2026-05-07 13:25 9.07402 -79.26048 9850 ft 304 kts 211°
2026-05-07 13:25 9.05682 -79.27200 9722 ft 290 kts 211°
2026-05-07 13:25 9.04016 -79.28314 9395 ft 286 kts 211°
2026-05-07 13:25 9.02382 -79.29404 8974 ft 285 kts 211°
2026-05-07 13:26 9.00683 -79.30416 8570 ft 283 kts 206°
2026-05-07 13:26 8.98954 -79.31348 8239 ft 279 kts 206°
2026-05-07 13:26 8.97278 -79.32246 8065 ft 268 kts 206°
2026-05-07 13:26 8.95641 -79.33127 7681 ft 266 kts 206°
2026-05-07 13:27 8.94006 -79.34013 7275 ft 266 kts 207°
2026-05-07 13:27 8.92385 -79.34897 6915 ft 264 kts 207°
2026-05-07 13:27 8.90800 -79.35764 6554 ft 262 kts 207°
2026-05-07 13:27 8.89203 -79.36638 6169 ft 260 kts 207°
2026-05-07 13:28 8.87616 -79.37507 5763 ft 259 kts 207°
2026-05-07 13:28 8.86089 -79.38464 5349 ft 259 kts 222°
2026-05-07 13:28 8.85187 -79.40003 4927 ft 258 kts 259°
2026-05-07 13:28 8.85230 -79.41784 4556 ft 254 kts 285°
2026-05-07 13:29 8.85918 -79.43383 4174 ft 242 kts 304°
2026-05-07 13:29 8.86799 -79.44737 3846 ft 224 kts 304°
2026-05-07 13:29 8.87632 -79.46058 3369 ft 221 kts 305°
2026-05-07 13:29 8.88641 -79.47157 3189 ft 215 kts 333°
2026-05-07 13:30 8.90008 -79.47347 3086 ft 194 kts 18°
2026-05-07 13:30 8.91179 -79.46728 2918 ft 190 kts 30°
2026-05-07 13:30 8.92386 -79.46236 2692 ft 185 kts 18°
2026-05-07 13:30 8.93549 -79.45699 2442 ft 183 kts 32°
2026-05-07 13:31 8.94586 -79.45037 2242 ft 167 kts 29°
2026-05-07 13:31 8.95561 -79.44492 2029 ft 150 kts 28°
2026-05-07 13:31 8.96466 -79.43982 1819 ft 149 kts 29°
2026-05-07 13:31 8.97353 -79.43479 1644 ft 148 kts 29°
2026-05-07 13:32 8.98252 -79.42967 1470 ft 149 kts 29°
2026-05-07 13:32 8.99151 -79.42456 1251 ft 147 kts 29°
2026-05-07 13:32 9.00034 -79.41953 1066 ft 146 kts 30°
2026-05-07 13:32 9.00921 -79.41448 899 ft 147 kts 29°
2026-05-07 13:33 9.01810 -79.40942 719 ft 147 kts 29°
2026-05-07 13:33 9.02705 -79.40433 535 ft 147 kts 29°
2026-05-07 13:33 9.03591 -79.39914 361 ft 147 kts 28°
2026-05-07 13:33 9.04490 -79.39422 157 ft 147 kts 27°
2026-05-07 13:34 9.05357 -79.38927 35 ft 138 kts 29°
2026-05-07 13:34 9.06360 -79.38381 29 ft 19 kts
2026-05-07 13:34 9.06464 -79.38379 29 ft 16 kts 359°
2026-05-07 13:35 9.06574 -79.38379 29 ft 15 kts
2026-05-07 13:35 9.06662 -79.38425 29 ft 15 kts 325°
2026-05-07 13:35 9.06758 -79.38407 29 ft 14 kts 25°
2026-05-07 13:35 9.06848 -79.38374 29 ft 14 kts 359°
2026-05-07 13:36 9.06902 -79.38432 29 ft 10 kts 279°
2026-05-07 13:36 9.06872 -79.38478 29 ft 0 kts 213°
2026-05-07 13:36 9.06867 -79.38482 29 ft 0 kts 216°